Weather History for Truth Or Consequences, NM

Change the Weather History Date:

Monday, October 15, 2012

  Actual Average Record
Temperature  
Mean Temperature 63 °F -  
Max Temperature 77 °F - 85 °F (2011)
Min Temperature 49 °F - 39 °F (1997)
Degree Days  
Heating Degree Days 2    
Month to date heating degree days 14  
Since 1 July heating degree days 27  
Cooling Degree Days 0    
Month to date cooling degree days 57  
Year to date cooling degree days 2082  
Growing Degree Days 12 (Base 50)    
Moisture  
Dew Point 29 °F    
Average Humidity 30    
Maximum Humidity 42    
Minimum Humidity 18    
Precipitation  
Precipitation 0.00 in - 0.37 in (2005)
Month to date precipitation 0.02  
Year to date precipitation 2.59  
Sea Level Pressure  
Sea Level Pressure 29.98 in    
Wind  
Wind Speed 7 mph (WSW)    
Max Wind Speed 17 mph    
Max Gust Speed 21 mph    
Visibility 10 miles    
Events      
T = Trace of Precipitation, MM = Missing Value Source: NWS Daily Summary

Daily Weather History Graph

Daily Weather History Graph

Search for Another Location

Airport:

Trip Planner

Search our weather history database for the weather conditions in past years. The results will help you decide how hot, cold, wet, or windy it might be!

Date:

Astronomy

Oct. 15, 2012 Rise Set
Actual Time 7:13 AM MDT 6:34 PM MDT
Civil Twilight 6:48 AM MDT 6:59 PM MDT
Nautical Twilight 6:20 AM MDT 7:28 PM MDT
Astronomical Twilight 5:51 AM MDT 7:57 PM MDT
Moon 7:24 AM MDT (10/15) 6:41 PM MDT (10/15)
Length of Visible Light 12h 10m
Length of Day
11h 21m
New Moon, 0% of the Moon is Illuminated
Oct 15
New Moon
Oct 21
First Quarter
Oct 29
Full
Nov 6
Last Quarter
Nov 13
New

Hourly Weather History & Observations

Time (MDT) Temp. Dew Point Humidity Pressure Visibility Wind Dir Wind Speed Gust Speed Precip Events Conditions
12:53 AM 53.1 °F 27.0 °F 37% 30.08 in 10.0 mi WNW 8.1 mph - N/A   Clear
1:53 AM 52.0 °F 27.0 °F 38% 30.07 in 10.0 mi WNW 8.1 mph - N/A   Clear
2:53 AM 52.0 °F 27.0 °F 38% 30.05 in 10.0 mi WNW 6.9 mph - N/A   Clear
3:53 AM 51.1 °F 27.0 °F 39% 30.03 in 10.0 mi WNW 8.1 mph - N/A   Clear
4:53 AM 48.9 °F 27.0 °F 43% 30.05 in 10.0 mi WNW 6.9 mph - N/A   Clear
5:53 AM 50.0 °F 27.0 °F 41% 30.07 in 10.0 mi WNW 9.2 mph - N/A   Clear
6:53 AM 48.9 °F 27.0 °F 43% 30.08 in 10.0 mi NW 8.1 mph - N/A   Clear
7:53 AM 50.0 °F 27.0 °F 41% 30.09 in 10.0 mi WNW 8.1 mph - N/A   Clear
8:53 AM 60.1 °F 28.9 °F 31% 30.09 in 10.0 mi North 4.6 mph - N/A   Clear
9:53 AM 64.0 °F 28.9 °F 27% 30.09 in 10.0 mi Calm Calm - N/A   Clear
10:53 AM 66.9 °F 30.9 °F 26% 30.06 in 10.0 mi Calm Calm - N/A   Clear
11:53 AM 69.1 °F 30.9 °F 24% 30.03 in 10.0 mi Calm Calm - N/A   Clear
12:53 PM 72.0 °F 30.9 °F 22% 29.99 in 10.0 mi SE 5.8 mph - N/A   Clear
1:53 PM 73.0 °F 28.9 °F 20% 29.95 in 10.0 mi South 5.8 mph - N/A   Clear
2:53 PM 75.0 °F 28.9 °F 18% 29.91 in 10.0 mi South 10.4 mph - N/A   Clear
3:53 PM 75.9 °F 30.9 °F 19% 29.90 in 10.0 mi South 12.7 mph - N/A   Clear
4:53 PM 75.9 °F 30.9 °F 19% 29.88 in 10.0 mi South 11.5 mph - N/A   Clear
5:53 PM 75.9 °F 30.0 °F 19% 29.86 in 10.0 mi SSE 13.8 mph - N/A   Clear
6:53 PM 72.0 °F 30.0 °F 21% 29.86 in 10.0 mi South 11.5 mph - N/A   Clear
7:53 PM 69.1 °F 32.0 °F 25% 29.88 in 10.0 mi SSE 8.1 mph - N/A   Clear
8:53 PM 68.0 °F 30.9 °F 25% 29.86 in 10.0 mi SW 6.9 mph - N/A   Clear
9:53 PM 63.0 °F 28.9 °F 28% 29.87 in 10.0 mi Calm Calm - N/A   Clear
10:53 PM 63.0 °F 28.0 °F 27% 29.88 in 10.0 mi West 5.8 mph - N/A   Clear
11:53 PM 59.0 °F 28.0 °F 31% 29.87 in 10.0 mi WNW 6.9 mph - N/A   Clear